DW2004 Weather Reports


Display with metric or nautical units.
time (UTC)temp
F
wind
direction
speed
MPH
gust
MPH
rain 1hr
in
rain 24hr
in
rain mn
in
humidity
%
barometer
mb
20221206204959 73 265 0.0 0.0 0.00 0.00 0.00 71 1013.0
20221206204503 73 264 0.0 0.0 0.00 0.00 0.00 71 1013.0
20221206203500 73 265 0.0 0.0 0.00 0.00 0.00 70 1013.0
20221206203003 73 264 0.0 0.0 0.00 0.00 0.00 70 1013.0
20221206201502 73 265 0.0 0.0 0.00 0.00 0.00 70 1012.8
20221206200458 73 254 0.0 0.0 0.00 0.00 0.00 70 1012.8
20221206200004 73 254 0.0 0.0 0.00 0.00 0.00 70 1012.8
20221206195458 73 254 0.0 0.0 0.00 0.00 0.00 70 1012.7
20221206194959 73 254 0.0 0.0 0.00 0.00 0.00 70 1012.8
20221206194502 73 253 0.0 0.0 0.00 0.00 0.00 70 1012.8
20221206193958 74 238 0.0 0.0 0.00 0.00 0.00 70 1012.8
20221206193459 74 238 0.0 0.0 0.00 0.00 0.00 70 1012.8
20221206193001 73 238 0.0 0.0 0.00 0.00 0.00 70 1012.8
20221206192458 73 238 0.0 0.0 0.00 0.00 0.00 71 1012.8
20221206191958 73 238 0.0 0.0 0.00 0.00 0.00 71 1012.8
20221206191502 73 238 0.0 0.0 0.00 0.00 0.00 72 1012.8
20221206190958 73 238 0.0 0.0 0.00 0.00 0.00 72 1012.7
20221206190458 73 238 0.0 0.0 0.00 0.00 0.00 72 1012.7
20221206190002 73 238 0.0 0.0 0.00 0.00 0.00 73 1012.7
20221206185457 73 238 0.0 0.0 0.00 0.00 0.00 73 1012.8
20221206184459 72 264 0.0 0.0 0.00 0.00 0.00 74 1012.8
20221206183457 72 232 0.0 0.0 0.00 0.00 0.00 74 1013.0
20221206182959 72 232 0.0 0.0 0.00 0.00 0.00 74 1013.1
20221206182456 72 232 0.0 10.0 0.00 0.00 0.00 75 1013.1
20221206181957 72 232 3.0 10.0 0.00 0.00 0.00 74 1013.1
20221206181459 72 259 0.0 8.0 0.00 0.00 0.00 76 1013.4
20221206180956 72 259 1.0 8.0 0.00 0.00 0.00 75 1013.5
20221206180456 72 216 1.0 6.0 0.00 0.00 0.00 76 1013.6
20221206180001 71 257 0.0 4.0 0.00 0.00 0.00 76 1013.6
20221206175457 71 236 0.0 9.0 0.00 0.00 0.00 77 1013.7
20221206173956 71 254 0.0 8.0 0.00 0.00 0.00 79 1013.8
20221206173457 70 254 2.0 8.0 0.00 0.00 0.00 79 1013.7
20221206172959 70 219 2.0 9.0 0.00 0.00 0.00 80 1013.8
20221206171956 70 242 1.0 7.0 0.00 0.00 0.00 80 1014.0
20221206170957 69 236 0.0 7.0 0.00 0.00 0.00 81 1013.7
20221206170457 69 236 0.0 7.0 0.00 0.00 0.00 81 1013.9
20221206170002 69 257 0.0 7.0 0.00 0.00 0.00 82 1013.9
20221206165457 69 254 1.0 6.0 0.00 0.00 0.00 82 1014.0
20221206164956 69 233 0.0 0.0 0.00 0.00 0.00 82 1014.0
20221206164501 69 236 0.0 0.0 0.00 0.00 0.00 83 1014.1
20221206163957 69 254 0.0 0.0 0.00 0.00 0.00 84 1013.9
20221206163456 68 230 0.0 0.0 0.00 0.00 0.00 85 1013.8
20221206162959 68 230 0.0 1.0 0.00 0.00 0.00 85 1013.7
20221206162457 68 230 0.0 5.0 0.00 0.00 0.00 85 1013.6
20221206161956 68 229 0.0 9.0 0.00 0.00 0.00 86 1013.7
20221206161459 67 232 0.0 9.0 0.00 0.00 0.00 86 1013.7
20221206160957 67 227 0.0 4.0 0.00 0.00 0.00 87 1013.7
20221206160457 67 227 1.0 7.0 0.00 0.00 0.00 87 1013.4
20221206160001 67 190 1.0 7.0 0.00 0.00 0.00 87 1013.3
20221206155457 67 246 1.0 6.0 0.00 0.00 0.00 88 1013.4
20221206154957 66 180 0.0 3.0 0.00 0.00 0.00 88 1013.3
20221206154459 66 234 0.0 0.0 0.00 0.00 0.00 89 1013.3
20221206153956 66 217 0.0 0.0 0.00 0.00 0.00 89 1013.4
20221206153457 66 202 0.0 0.0 0.00 0.00 0.00 89 1013.2
20221206152959 65 202 0.0 0.0 0.00 0.00 0.00 90 1013.1
20221206152457 65 202 0.0 0.0 0.00 0.00 0.00 90 1013.0
20221206151957 65 221 0.0 0.0 0.00 0.00 0.00 90 1013.0
20221206151459 65 195 0.0 0.0 0.00 0.00 0.00 90 1012.7
20221206150957 64 232 0.0 0.0 0.00 0.00 0.00 90 1012.6
20221206150457 64 232 0.0 0.0 0.00 0.00 0.00 90 1012.5
20221206150001 64 232 0.0 0.0 0.00 0.00 0.00 90 1012.4
20221206145456 64 232 0.0 0.0 0.00 0.00 0.00 91 1012.5
20221206144500 63 229 0.0 0.0 0.00 0.00 0.00 91 1012.4
20221206143956 63 209 0.0 0.0 0.00 0.00 0.00 91 1012.3
20221206143456 63 209 0.0 0.0 0.00 0.00 0.00 91 1012.3
20221206142959 62 209 0.0 0.0 0.00 0.00 0.00 91 1012.3
20221206141956 62 209 0.0 0.0 0.00 0.00 0.00 91 1012.2
20221206141459 62 209 0.0 0.0 0.00 0.00 0.00 91 1012.2
20221206140956 62 209 0.0 0.0 0.00 0.00 0.00 91 1012.2
20221206140457 62 209 0.0 0.0 0.00 0.00 0.00 91 1012.2
20221206140000 61 209 0.0 0.0 0.00 0.00 0.00 91 1012.1
20221206135456 61 209 0.0 0.0 0.00 0.00 0.00 90 1011.9
20221206134956 61 209 0.0 0.0 0.00 0.00 0.00 90 1011.9
20221206134458 61 209 0.0 0.0 0.00 0.00 0.00 90 1011.9
20221206133955 61 209 0.0 0.0 0.00 0.00 0.00 90 1011.7
20221206132958 61 209 0.0 0.0 0.00 0.00 0.00 90 1011.6
20221206132455 61 209 0.0 0.0 0.00 0.00 0.00 92 1011.5
20221206131956 61 209 0.0 0.0 0.00 0.00 0.00 90 1011.4
20221206131458 61 209 0.0 0.0 0.00 0.00 0.00 90 1011.2
20221206130955 60 209 0.0 0.0 0.00 0.00 0.00 90 1011.1
20221206130455 60 209 0.0 0.0 0.00 0.00 0.00 90 1011.0
20221206130002 60 209 0.0 0.0 0.00 0.00 0.00 90 1011.0
20221206125455 60 209 0.0 0.0 0.00 0.00 0.00 90 1011.0
20221206124955 60 209 0.0 0.0 0.00 0.00 0.00 90 1011.0
20221206124458 60 209 0.0 0.0 0.00 0.00 0.00 90 1010.9
20221206123956 60 209 0.0 0.0 0.00 0.00 0.00 90 1010.7
20221206123455 61 209 0.0 0.0 0.00 0.00 0.00 89 1010.6
20221206122959 61 209 0.0 0.0 0.00 0.00 0.00 90 1010.6
20221206122455 61 209 0.0 0.0 0.00 0.00 0.00 90 1010.4
20221206121955 61 209 0.0 0.0 0.00 0.00 0.00 90 1010.4
20221206121459 61 209 0.0 0.0 0.00 0.00 0.00 90 1010.3
20221206120955 61 209 0.0 0.0 0.00 0.00 0.00 90 1010.2
20221206120000 61 209 0.0 0.0 0.00 0.00 0.00 90 1010.0
20221206114955 60 209 0.0 0.0 0.00 0.00 0.00 89 1009.9
20221206114500 60 209 0.0 0.0 0.00 0.00 0.00 89 1009.9
20221206113456 60 209 0.0 0.0 0.00 0.00 0.00 89 1009.8
20221206112456 60 209 0.0 0.0 0.00 0.00 0.00 89 1009.8
20221206111957 60 209 0.0 0.0 0.00 0.00 0.00 89 1009.8
20221206111458 60 209 0.0 0.0 0.00 0.00 0.00 89 1009.8
20221206110956 60 209 0.0 0.0 0.00 0.00 0.00 89 1009.8
20221206110456 60 209 0.0 0.0 0.00 0.00 0.00 89 1009.7
20221206110001 60 209 0.0 0.0 0.00 0.00 0.00 88 1009.6
20221206105456 60 209 0.0 0.0 0.00 0.00 0.00 88 1009.7
20221206104956 61 209 0.0 0.0 0.00 0.00 0.00 88 1009.6
20221206104458 61 209 0.0 0.0 0.00 0.00 0.00 88 1009.4
20221206103455 60 209 0.0 0.0 0.00 0.00 0.00 88 1009.4
20221206102958 61 209 0.0 0.0 0.00 0.00 0.00 88 1009.5
20221206102456 61 209 0.0 0.0 0.00 0.00 0.00 88 1009.4
20221206101955 61 209 0.0 0.0 0.00 0.00 0.00 88 1009.4
20221206101500 62 209 0.0 0.0 0.00 0.00 0.00 87 1009.5
20221206100956 62 209 0.0 0.0 0.00 0.00 0.00 88 1009.6
20221206100001 61 209 0.0 0.0 0.00 0.00 0.00 87 1009.5
20221206095454 61 209 0.0 0.0 0.00 0.00 0.00 87 1009.5
20221206094955 62 209 0.0 0.0 0.00 0.00 0.00 87 1009.5
20221206094457 62 209 0.0 0.0 0.00 0.00 0.00 87 1009.4
20221206093954 62 209 0.0 0.0 0.00 0.00 0.00 86 1009.5
20221206093454 62 209 0.0 0.0 0.00 0.00 0.00 87 1009.5
20221206092455 63 209 0.0 0.0 0.00 0.00 0.00 86 1009.4
20221206091954 63 209 0.0 0.0 0.00 0.00 0.00 86 1009.5
20221206090955 64 209 0.0 0.0 0.00 0.00 0.00 86 1009.5
20221206090001 64 209 0.0 0.0 0.00 0.00 0.00 86 1009.4
20221206085455 65 209 0.0 0.0 0.00 0.00 0.00 85 1009.4
20221206084955 65 209 0.0 0.0 0.00 0.00 0.00 85 1009.4
20221206084457 65 209 0.0 0.0 0.00 0.00 0.00 85 1009.4
20221206083955 65 209 0.0 0.0 0.00 0.00 0.00 85 1009.3
20221206082958 65 209 0.0 0.0 0.00 0.00 0.00 85 1009.3
20221206082455 65 209 0.0 0.0 0.00 0.00 0.00 85 1009.3
20221206081458 65 209 0.0 0.0 0.00 0.00 0.00 85 1009.2
20221206080954 66 209 0.0 0.0 0.00 0.00 0.00 84 1009.1
20221206080454 66 209 0.0 0.0 0.00 0.00 0.00 85 1009.2
20221206075455 66 209 0.0 0.0 0.00 0.00 0.00 84 1009.1
20221206074955 66 209 0.0 0.0 0.00 0.00 0.00 84 1009.0
20221206074458 66 209 0.0 0.0 0.00 0.00 0.00 84 1009.0
20221206073955 66 202 0.0 0.0 0.00 0.00 0.00 84 1009.1
20221206073454 66 202 0.0 0.0 0.00 0.00 0.00 84 1009.0
20221206072957 66 202 0.0 0.0 0.00 0.00 0.00 84 1008.9
20221206072454 66 202 0.0 0.0 0.00 0.00 0.00 84 1008.9
20221206071458 67 202 0.0 0.0 0.00 0.00 0.00 83 1008.9
20221206070955 67 202 0.0 0.0 0.00 0.00 0.00 83 1008.9
20221206070005 67 202 0.0 0.0 0.00 0.00 0.00 83 1008.9
20221206065501 67 221 0.0 0.0 0.00 0.00 0.00 83 1008.9
20221206065001 67 221 0.0 0.0 0.00 0.00 0.00 83 1008.9
20221206064000 67 200 0.0 0.0 0.00 0.00 0.00 82 1009.1
20221206063501 68 199 0.0 0.0 0.00 0.00 0.00 82 1009.0
20221206063004 68 198 0.0 0.0 0.00 0.00 0.00 82 1009.1
20221206062501 68 186 0.0 0.0 0.00 0.00 0.00 82 1009.1
20221206061503 68 215 0.0 0.0 0.00 0.00 0.00 82 1009.0
20221206061001 68 251 0.0 0.0 0.00 0.00 0.00 82 1009.0
20221206060501 68 225 0.0 0.0 0.00 0.00 0.00 82 1009.0
20221206060007 68 227 0.0 0.0 0.00 0.00 0.00 82 1009.0
20221206055459 68 240 0.0 0.0 0.00 0.00 0.00 82 1009.0
20221206054959 68 230 0.0 0.0 0.00 0.00 0.00 82 1009.0
20221206054502 68 203 0.0 0.0 0.00 0.00 0.00 82 1009.0
20221206054000 68 203 0.0 0.0 0.00 0.00 0.00 82 1009.0
20221206053500 68 232 0.0 0.0 0.00 0.00 0.00 82 1009.0
20221206053002 68 232 0.0 8.0 0.00 0.00 0.00 82 1009.0
20221206051959 69 213 0.0 8.0 0.00 0.00 0.00 81 1009.0
20221206051000 69 238 1.0 10.0 0.00 0.00 0.00 81 1009.0
20221206050005 69 238 2.0 8.0 0.00 0.00 0.00 81 1008.8
20221206045459 69 243 1.0 8.0 0.00 0.00 0.00 81 1008.9
20221206044959 69 213 1.0 9.0 0.00 0.00 0.00 81 1008.9
20221206044503 69 222 3.0 10.0 0.00 0.00 0.00 81 1008.9
20221206043959 69 192 3.0 10.0 0.00 0.00 0.00 81 1008.8
20221206043500 69 232 1.0 8.0 0.00 0.00 0.00 81 1008.8
20221206043003 69 206 2.0 8.0 0.00 0.00 0.00 81 1008.9
20221206042500 69 207 1.0 8.0 0.00 0.00 0.00 80 1008.9
20221206042000 70 219 1.0 8.0 0.00 0.00 0.00 80 1008.9
20221206041502 70 229 0.0 10.0 0.00 0.00 0.00 80 1008.9
20221206040959 70 219 0.0 7.0 0.00 0.00 0.00 80 1008.9
20221206040459 70 235 1.0 11.0 0.00 0.00 0.00 80 1008.8
20221206040005 70 200 2.0 11.0 0.00 0.00 0.00 80 1008.8
20221206035500 70 238 1.0 9.0 0.00 0.00 0.00 80 1008.6
20221206034959 70 248 1.0 10.0 0.00 0.00 0.00 80 1008.7
20221206034502 70 254 3.0 12.0 0.00 0.00 0.00 80 1008.6
20221206034000 70 249 3.0 12.0 0.00 0.00 0.00 80 1008.6
20221206033500 70 229 2.0 7.0 0.00 0.00 0.00 79 1008.8
20221206031502 70 264 2.0 8.0 0.00 0.00 0.00 79 1008.5
20221206030959 70 252 2.0 10.0 0.00 0.00 0.00 79 1008.5
20221206030500 70 237 2.0 10.0 0.00 0.00 0.00 78 1008.5
20221206030004 70 238 3.0 8.0 0.00 0.00 0.00 78 1008.5
20221206025459 70 235 1.0 6.0 0.00 0.00 0.00 78 1008.5
20221206025000 70 203 0.0 0.0 0.00 0.00 0.00 77 1008.5
20221206024503 71 230 0.0 0.0 0.00 0.00 0.00 77 1008.6
20221206023959 71 209 0.0 0.0 0.00 0.00 0.00 76 1008.5
20221206023459 71 215 0.0 0.0 0.00 0.00 0.00 76 1008.5
20221206023003 71 243 0.0 0.0 0.00 0.00 0.00 75 1008.5
20221206022459 71 242 0.0 0.0 0.00 0.00 0.00 75 1008.4
20221206022000 71 242 0.0 4.0 0.00 0.00 0.00 75 1008.4
20221206020459 72 211 0.0 11.0 0.00 0.00 0.00 74 1008.4
20221206020005 72 233 0.0 0.0 0.00 0.00 0.00 73 1008.4
20221206015458 72 233 0.0 0.0 0.00 0.00 0.00 73 1008.5
20221206014959 71 233 0.0 0.0 0.00 0.00 0.00 73 1008.4
20221206014501 71 234 0.0 0.0 0.00 0.00 0.00 72 1008.3
20221206013958 72 234 0.0 0.0 0.00 0.00 0.00 71 1008.3
20221206013458 72 234 0.0 0.0 0.00 0.00 0.00 71 1008.4
20221206013001 72 234 0.0 0.0 0.00 0.00 0.00 70 1008.3
20221206012458 72 234 0.0 0.0 0.00 0.00 0.00 70 1008.1
20221206011959 72 234 0.0 0.0 0.00 0.00 0.00 69 1008.1
20221206011501 72 235 0.0 0.0 0.00 0.00 0.00 69 1008.0
20221206010958 71 234 0.0 0.0 0.00 0.00 0.00 68 1007.9
20221206010458 72 234 0.0 0.0 0.00 0.00 0.00 67 1007.8
20221206010005 72 234 0.0 0.0 0.00 0.00 0.00 67 1007.8
20221206004959 72 234 0.0 0.0 0.00 0.00 0.00 66 1007.6
20221206004501 72 235 0.0 0.0 0.00 0.00 0.00 65 1007.6
20221206003958 73 236 0.0 0.0 0.00 0.00 0.00 64 1007.5
20221206003001 74 236 0.0 0.0 0.00 0.00 0.00 63 1007.4
20221206002458 74 236 0.0 0.0 0.00 0.00 0.00 62 1007.4
20221206001958 74 236 0.0 0.0 0.00 0.00 0.00 62 1007.4
20221206000004 76 235 2.0 10.0 0.00 0.00 0.00 60 1007.3
20221205235459 76 234 3.0 11.0 0.00 0.00 0.00 60 1007.3
20221205234958 76 252 0.0 11.0 0.00 0.00 0.00 60 1007.3
20221205233959 76 236 0.0 0.0 0.00 0.00 0.00 61 1007.3
20221205233459 76 207 0.0 0.0 0.00 0.00 0.00 61 1007.3
20221205233002 76 225 0.0 0.0 0.00 0.00 0.00 61 1007.3
20221205231959 77 225 0.0 0.0 0.00 0.00 0.00 60 1007.2
20221205231501 77 225 0.0 0.0 0.00 0.00 0.00 59 1007.2
20221205230958 77 225 0.0 0.0 0.00 0.00 0.00 59 1007.2
20221205230458 78 225 0.0 0.0 0.00 0.00 0.00 58 1007.2
20221205230003 78 225 0.0 0.0 0.00 0.00 0.00 57 1007.1
20221205225459 78 225 0.0 8.0 0.00 0.00 0.00 56 1007.0
20221205224958 79 225 2.0 8.0 0.00 0.00 0.00 56 1007.0
20221205224501 79 243 1.0 7.0 0.00 0.00 0.00 55 1007.0
20221205223958 79 226 3.0 7.0 0.00 0.00 0.00 55 1006.9
20221205223459 79 217 4.0 12.0 0.00 0.00 0.00 55 1007.0
20221205223001 79 265 2.0 14.0 0.00 0.00 0.00 55 1007.0
20221205222458 80 225 1.0 14.0 0.00 0.00 0.00 55 1006.9
20221205221958 80 218 2.0 13.0 0.00 0.00 0.00 55 1006.9
20221205221501 80 249 6.0 13.0 0.00 0.00 0.00 55 1006.9
20221205220958 80 219 4.0 15.0 0.00 0.00 0.00 56 1007.0
20221205220458 80 229 4.0 16.0 0.00 0.00 0.00 57 1006.9
20221205220012 80 233 7.0 16.0 0.00 0.00 0.00 57 1006.9
20221205215459 80 264 5.0 11.0 0.00 0.00 0.00 57 1006.9
20221205214958 80 240 4.0 15.0 0.00 0.00 0.00 58 1006.9
20221205214504 80 229 8.0 15.0 0.00 0.00 0.00 57 1006.9
20221205213958 80 277 4.0 14.0 0.00 0.00 0.00 58 1006.9
20221205213458 79 263 5.0 14.0 0.00 0.00 0.00 58 1006.8
20221205213003 79 235 4.0 12.0 0.00 0.00 0.00 59 1006.8
20221205212458 79 233 6.0 19.0 0.00 0.00 0.00 59 1006.8
20221205211958 79 249 6.0 19.0 0.00 0.00 0.00 60 1006.8
20221205211504 79 257 6.0 16.0 0.00 0.00 0.00 61 1007.0
20221205210958 79 268 6.0 12.0 0.00 0.00 0.00 61 1006.9
20221205210458 79 234 5.0 11.0 0.00 0.00 0.00 61 1007.0
20221205210002 79 186 5.0 14.0 0.00 0.00 0.00 61 1007.0
20221205205457 79 191 4.0 18.0 0.00 0.00 0.00 61 1007.1